[[{"header":{"parameterUnit":"m.s-1","parameterCategory":1,"la1":30.2991,"la2":30.254,"lo1":-89.0895,"lo2":-89.0444,"dy":0.0017,"dx":0.0017,"nx":28,"ny":28,"refTime":"2023-10-02T03:00:00:Z","depth":0,"parameterNumber":2,"parameterNumberName":"U-component_of_WINDS"},"data":[0,0,0,0,0,0,0,0,0,0,0,0,0,0,0,0,0,0,0,0,0,0,0,0,0,0,0,0,0,0,0,0,0,0,0,0,0,0,0,0,0,0,0,0,0,0,0,0,0,0,0,0,0,0,0,0,0,0,-5.4742,-5.4742,0,-5.4825,-5.4826,-5.4827,-5.4635,-5.4629,-5.4622,-5.4617,-5.4706,-5.4714,-5.4722,0,0,0,0,0,0,0,0,0,0,0,0,0,-5.4419,-5.4426,-5.4741,-5.4742,-5.4744,-5.4825,-5.4826,-5.4827,-5.4636,-5.4628,-5.4621,-5.4614,-5.4704,-5.4713,-5.4723,0,0,0,0,0,0,0,0,0,0,0,0,0,-5.4537,-5.4429,-5.4741,-5.4658,-5.4651,-5.4824,-5.4826,-5.4827,-5.4637,-5.4628,-5.4619,-5.461,-5.4701,-5.4712,-5.4724,-5.4984,0,0,-5.4762,-5.4767,0,0,0,0,0,0,0,0,-5.4531,-5.4549,-5.4669,-5.4664,-5.4657,-5.471,-5.4745,-5.488,-5.464,-5.4643,-5.4616,-5.4606,-5.4715,-5.4726,-5.4762,-5.4988,-5.4992,-5.4763,-5.477,-5.4775,-5.4779,0,0,0,0,0,0,0,-5.4523,-5.4544,-5.4774,-5.4671,-5.4664,-5.4617,-5.4624,-5.477,-5.473,-5.4642,-5.4628,-5.464,-5.471,-5.475,-5.4762,-5.4993,-5.4762,-5.4773,-5.4781,-5.4785,-5.5435,-5.5444,0,0,0,0,0,0,-5.4525,-5.4539,-5.4772,-5.4777,-5.4569,-5.463,-5.4638,-5.4702,-5.4728,-5.4723,-5.4648,-5.4631,-5.4734,-5.4748,-5.4765,-5.5069,-5.4775,-5.4787,-5.4794,-5.5425,-5.5437,-5.5448,0,0,0,0,0,0,-5.4519,-5.4547,-5.4768,-5.4654,-5.4679,-5.4646,-5.472,-5.4709,-5.4748,-5.4732,-5.4725,-5.4696,-5.4727,-5.4748,-5.493,-5.507,-5.4792,-5.4803,-5.5413,-5.5429,-5.5443,-5.5681,0,0,0,0,0,0,-5.451,-5.4546,-5.4644,-5.4658,-5.4686,-5.4932,-5.4728,-5.4717,-5.4769,-5.4748,-5.4775,-5.4771,-5.4722,-5.4913,-5.4942,-5.5081,-5.4813,-5.5401,-5.542,-5.5438,-5.5661,-5.5702,-5.5738,0,0,0,0,0,-5.4499,-5.4709,-5.465,-5.4679,-5.4807,-5.4941,-5.4957,-5.4894,-5.4782,-5.488,-5.4869,-5.477,-5.505,-5.4933,-5.4965,-5.511,-5.5392,-5.5415,-5.5436,-5.5643,-5.5694,-5.5737,0,0,0,0,0,0,-5.4714,-5.4709,-5.4644,-5.4864,-5.4904,-5.4908,-5.503,-5.495,-5.5024,-5.5001,-5.4922,-5.493,-5.5127,-5.5136,-5.5007,-5.5361,-5.5202,-5.5231,-5.5348,-5.5396,-5.5434,-5.5428,-5.4823,0,0,0,0,0,-5.4787,-5.4895,-5.4885,-5.5081,-5.5104,-5.5064,-5.512,-5.5068,-5.5107,-5.5124,-5.5126,-5.5169,-5.5265,-5.5331,-5.542,-5.5661,-5.5664,-5.5776,-5.5815,-5.5846,-5.5873,-5.6001,-5.605,-5.5522,-5.5521,-5.5521,0,0,-5.4939,-5.495,-5.5023,-5.5124,-5.5149,-5.5263,-5.508,-5.5209,-5.5293,-5.5143,-5.5315,-5.5319,-5.5361,-5.5574,-5.5668,-5.5588,-5.602,-5.5875,-5.59,-5.591,-5.6029,-5.6079,-5.6123,-5.5537,-5.5534,-5.5532,0,0,-5.5275,-5.5294,-5.5458,-5.5486,-5.5525,-5.5497,-5.5537,-5.5553,-5.5549,-5.572,-5.5609,-5.5709,-5.5878,-5.5912,-5.5952,-5.6299,-5.6211,-5.633,-5.6533,-5.6658,-5.6699,-5.6736,-5.686,-5.6905,-5.6357,-5.6357,-5.6358,0,-5.5459,-5.5626,-5.5553,-5.5689,-5.5737,-5.5605,-5.577,-5.5802,-5.5869,-5.5906,-5.5814,-5.6022,-5.6042,-5.626,-5.6344,-5.6381,-5.6424,-5.6327,-5.6699,-5.6735,-5.6768,-5.6885,-5.6932,-5.6372,-5.637,-5.6369,-5.6367,0,-5.5851,-5.5968,-5.6096,-5.6162,-5.6224,-5.6375,-5.6326,-5.6397,-5.634,-5.6322,-5.6497,-5.6515,-5.6604,-5.6652,-5.6599,-5.6864,-5.6812,-5.6712,-5.655,-5.6834,-5.6942,-5.6987,-5.6392,-5.6387,-5.6383,-5.6379,0,0,-5.6325,-5.6347,-5.6396,-5.6424,-5.6457,-5.6547,-5.6691,-5.6777,-5.684,-5.689,-5.701,-5.7155,-5.7061,-5.7107,-5.7055,-5.7165,-5.7439,-5.705,-5.705,-5.7122,-5.7731,-5.7807,-5.786,-5.738,-5.7388,-5.7395,-5.7728,0,-5.6656,-5.6903,-5.6841,-5.7087,-5.7194,-5.7069,-5.7195,-5.723,-5.7217,-5.7306,-5.7292,-5.7396,-5.7265,-5.7291,-5.7394,-5.7384,-5.756,-5.7359,-5.7491,-5.7497,-5.7485,-5.7917,-5.7997,-5.8311,-5.777,-5.7777,-5.7782,0,-5.7076,-5.714,-5.7397,-5.7411,-5.7453,-5.7568,-5.764,-5.7728,-5.7764,-5.7747,-5.7797,-5.7723,-5.7867,-5.7703,-5.79,-5.7764,-5.7815,-5.7818,-5.7828,-5.7839,-5.7657,-5.7939,-5.8409,-5.8456,-5.7848,-5.7843,-5.7838,0,-5.7396,-5.7547,-5.7719,-5.7747,-5.7768,-5.7851,-5.7864,-5.7891,-5.7946,-5.801,-5.8045,-5.8126,-5.8171,-5.8236,-5.8186,-5.8072,-5.8391,-5.8223,-5.8381,-5.8383,-5.8454,-5.8451,-5.894,-5.8488,-5.8487,-5.8486,-5.8485,0,-5.7772,-5.7934,-5.7863,-5.7969,-5.8146,-5.8074,-5.8251,-5.825,-5.8275,-5.8379,-5.8277,-5.8377,-5.8305,-5.84,-5.8362,-5.853,-5.8552,-5.8542,-5.853,-5.8551,-5.8553,-5.8583,-5.856,-5.8498,-5.8496,-5.8493,-5.8491,0,-5.816,-5.8119,-5.8298,-5.8303,-5.8308,-5.8438,-5.8442,-5.8541,-5.8519,-5.8652,-5.868,-5.8647,-5.8752,-5.8709,-5.8821,-5.8796,-5.9012,-5.8971,-5.8999,-5.8989,-5.9148,-5.9134,-5.9674,-5.9741,-5.9247,-5.9252,-5.9256,0,-5.8402,-5.8523,-5.854,-5.8602,-5.8621,-5.8722,-5.8777,-5.871,-5.8772,-5.8822,-5.8915,-5.9011,-5.9085,-5.926,-5.9246,-5.9332,-5.9292,-5.9476,-5.9305,-5.9322,-5.9295,-5.9288,-5.93,-5.951,-5.9516,-5.9521,-5.9525,0,-5.8837,-5.8811,-5.8893,-5.897,-5.9038,-5.9095,-5.9143,-5.92,-5.9134,-5.9209,-5.9315,-5.9372,-5.9485,-5.9583,-5.9658,-5.9672,-5.9589,-5.9578,-5.9619,-5.9642,-5.9653,-5.9649,-5.9092,-5.9567,-5.9562,-5.9559,-5.9557,-5.9555,-5.9159,-5.9261,-5.9288,-5.9383,-5.9412,-5.9459,-5.9552,-5.9541,-5.9628,-5.9713,-5.9669,-5.9792,-5.9825,-5.9917,-5.9942,-6.0038,-5.9967,-6.0026,-6.0041,-6.0057,-6.0078,-5.9638,-6.0052,-6.0051,-6.005,-6.0048,-6.0048,0,-5.9589,-5.9599,-5.9688,-5.9757,-5.9833,-5.9746,-5.9794,-5.9863,-5.9972,-6.0009,-6.0083,-6.0204,-6.0298,-6.0292,-6.0378,-6.0456,-6.042,-6.0481,-6.0474,-6.0479,-6.0137,-6.0093,-6.0508,-6.0508,-6.0508,-6.0508,-6.0508,-6.0508,-5.9821,-5.9987,-5.9964,-6.0144,-6.0153,-6.0272,-6.0307,-6.035,-6.0379,-6.0519,-6.0595,-6.0589,-6.0609,-6.0696,-6.0778,-6.0773,-6.081,-6.0886,-6.0868,-6.0549,-6.0503,-6.0459,-6.0417,-6.0894,-6.0895,-6.1201,-6.1204,-6.1206]},{"header":{"parameterUnit":"m.s-1","parameterCategory":1,"la1":30.2991,"la2":30.254,"lo1":-89.0895,"lo2":-89.0444,"dy":0.0017,"dx":0.0017,"nx":28,"ny":28,"refTime":"2023-10-02T03:00:00:Z","depth":0,"parameterNumber":3,"parameterNumberName":"V-component_of_WINDS"},"data":[0,0,0,0,0,0,0,0,0,0,0,0,0,0,0,0,0,0,0,0,0,0,0,0,0,0,0,0,0,0,0,0,0,0,0,0,0,0,0,0,0,0,0,0,0,0,0,0,0,0,0,0,0,0,0,0,0,0,-2.5275,-2.5275,0,-2.5271,-2.5271,-2.5271,-2.525,-2.525,-2.5249,-2.5249,-2.5243,-2.5243,-2.5244,0,0,0,0,0,0,0,0,0,0,0,0,0,-2.5262,-2.5263,-2.5275,-2.5275,-2.5275,-2.5271,-2.5271,-2.5271,-2.525,-2.525,-2.5249,-2.5248,-2.5243,-2.5243,-2.5244,0,0,0,0,0,0,0,0,0,0,0,0,0,-2.5264,-2.5263,-2.5275,-2.5264,-2.5263,-2.5271,-2.5271,-2.5271,-2.525,-2.525,-2.5249,-2.5248,-2.5243,-2.5243,-2.5244,-2.5261,0,0,-2.5245,-2.5245,0,0,0,0,0,0,0,0,-2.5264,-2.5264,-2.5266,-2.5265,-2.5264,-2.526,-2.5264,-2.5268,-2.525,-2.5255,-2.5249,-2.5248,-2.5249,-2.5249,-2.525,-2.5261,-2.5261,-2.5245,-2.5245,-2.5246,-2.5246,0,0,0,0,0,0,0,-2.5264,-2.5265,-2.5274,-2.5266,-2.5265,-2.5259,-2.5258,-2.5265,-2.5256,-2.5255,-2.5253,-2.5253,-2.5249,-2.525,-2.525,-2.5261,-2.5245,-2.5246,-2.5246,-2.5246,-2.5283,-2.5284,0,0,0,0,0,0,-2.5266,-2.5265,-2.5274,-2.5273,-2.5262,-2.5259,-2.5259,-2.5262,-2.5256,-2.5255,-2.5254,-2.5252,-2.5249,-2.5249,-2.5249,-2.5268,-2.5246,-2.5246,-2.5246,-2.5282,-2.5283,-2.5284,0,0,0,0,0,0,-2.5265,-2.5267,-2.5274,-2.5269,-2.5269,-2.526,-2.5264,-2.5263,-2.5264,-2.5255,-2.5254,-2.5256,-2.5249,-2.5249,-2.5258,-2.5267,-2.5246,-2.5247,-2.5282,-2.5283,-2.5284,-2.5306,0,0,0,0,0,0,-2.5265,-2.5267,-2.5274,-2.5269,-2.5269,-2.5283,-2.5265,-2.5263,-2.5265,-2.5262,-2.5258,-2.5256,-2.5248,-2.5257,-2.5258,-2.5268,-2.5247,-2.5281,-2.5282,-2.5283,-2.5304,-2.5307,-2.531,0,0,0,0,0,-2.5265,-2.5281,-2.5275,-2.5276,-2.5279,-2.5284,-2.5284,-2.5275,-2.5265,-2.5272,-2.5266,-2.5256,-2.5266,-2.5259,-2.526,-2.5269,-2.528,-2.5282,-2.5283,-2.5303,-2.5307,-2.531,0,0,0,0,0,0,-2.5287,-2.528,-2.5273,-2.5288,-2.5287,-2.5281,-2.5289,-2.528,-2.5281,-2.5279,-2.5267,-2.5266,-2.5277,-2.5274,-2.5265,-2.5284,-2.5271,-2.5273,-2.5286,-2.529,-2.5293,-2.5293,-2.5247,0,0,0,0,0,-2.5294,-2.53,-2.5293,-2.5307,-2.5306,-2.5298,-2.53,-2.5293,-2.5291,-2.529,-2.5285,-2.5283,-2.5286,-2.5288,-2.529,-2.5304,-2.5301,-2.5311,-2.5314,-2.5316,-2.5318,-2.5323,-2.5326,-2.5289,-2.5289,-2.5289,0,0,-2.5308,-2.5305,-2.5309,-2.5311,-2.5309,-2.5314,-2.5298,-2.5304,-2.5307,-2.5291,-2.5299,-2.5295,-2.5292,-2.5303,-2.5308,-2.5301,-2.5327,-2.5318,-2.532,-2.532,-2.5325,-2.5328,-2.5331,-2.529,-2.529,-2.529,0,0,-2.5336,-2.5335,-2.5345,-2.5343,-2.5341,-2.5334,-2.5337,-2.5332,-2.5328,-2.5336,-2.5323,-2.5327,-2.5332,-2.5329,-2.5329,-2.5353,-2.5343,-2.5354,-2.537,-2.5375,-2.5378,-2.538,-2.5387,-2.539,-2.5356,-2.5356,-2.5356,0,-2.5354,-2.5361,-2.5352,-2.5358,-2.5359,-2.5344,-2.5353,-2.5352,-2.535,-2.535,-2.5342,-2.5347,-2.5344,-2.5353,-2.5359,-2.536,-2.5361,-2.5354,-2.5378,-2.5381,-2.5383,-2.5389,-2.5392,-2.5357,-2.5357,-2.5357,-2.5357,0,-2.5382,-2.5388,-2.5396,-2.5394,-2.5395,-2.5404,-2.5394,-2.5396,-2.5388,-2.5382,-2.5389,-2.5385,-2.5385,-2.5386,-2.5379,-2.5394,-2.539,-2.5381,-2.5367,-2.5388,-2.5393,-2.5396,-2.5359,-2.5359,-2.5358,-2.5358,0,0,-2.5425,-2.5416,-2.5419,-2.5417,-2.5412,-2.5416,-2.5422,-2.5422,-2.5423,-2.5422,-2.5426,-2.543,-2.542,-2.542,-2.5412,-2.5417,-2.5434,-2.5406,-2.5406,-2.541,-2.5447,-2.5453,-2.5457,-2.5427,-2.5428,-2.5428,-2.5447,0,-2.545,-2.5461,-2.5452,-2.5464,-2.5468,-2.5453,-2.5458,-2.5455,-2.5449,-2.5451,-2.5444,-2.5446,-2.5435,-2.5434,-2.5438,-2.5431,-2.5441,-2.5429,-2.5429,-2.5429,-2.543,-2.546,-2.5467,-2.5485,-2.5449,-2.545,-2.545,0,-2.5481,-2.5481,-2.5493,-2.5485,-2.5487,-2.5492,-2.5489,-2.5492,-2.5487,-2.5482,-2.5481,-2.5471,-2.5475,-2.5462,-2.5467,-2.546,-2.5459,-2.5455,-2.5456,-2.5454,-2.544,-2.5458,-2.5491,-2.5493,-2.5454,-2.5454,-2.5453,0,-2.5509,-2.5511,-2.5519,-2.5518,-2.5509,-2.5513,-2.5509,-2.5504,-2.5503,-2.5501,-2.5501,-2.5499,-2.5498,-2.5497,-2.5486,-2.5478,-2.5491,-2.5478,-2.5486,-2.5486,-2.5489,-2.5489,-2.5521,-2.5491,-2.5491,-2.5491,-2.5491,0,-2.5537,-2.5545,-2.5531,-2.5535,-2.5543,-2.5531,-2.5539,-2.5534,-2.5529,-2.5531,-2.5518,-2.552,-2.5506,-2.5507,-2.5498,-2.5502,-2.5502,-2.5498,-2.5495,-2.5498,-2.5499,-2.5497,-2.5495,-2.5492,-2.5491,-2.5491,-2.5491,0,-2.5569,-2.556,-2.5567,-2.5558,-2.5556,-2.5561,-2.5553,-2.5556,-2.5549,-2.5552,-2.5552,-2.554,-2.554,-2.5529,-2.5527,-2.5521,-2.5528,-2.5523,-2.5529,-2.5527,-2.5535,-2.5534,-2.5567,-2.5569,-2.5539,-2.5539,-2.5539,0,-2.5588,-2.5593,-2.5584,-2.5585,-2.5582,-2.5583,-2.5582,-2.557,-2.557,-2.5564,-2.5567,-2.5566,-2.5564,-2.5563,-2.5554,-2.5551,-2.5546,-2.5557,-2.5546,-2.5548,-2.5544,-2.5544,-2.5543,-2.556,-2.556,-2.556,-2.5561,0,-2.562,-2.5615,-2.5615,-2.5612,-2.5612,-2.5609,-2.5606,-2.5607,-2.5594,-2.5594,-2.5593,-2.5591,-2.5588,-2.5586,-2.5581,-2.5576,-2.5566,-2.5565,-2.5566,-2.5569,-2.5571,-2.5568,-2.5535,-2.5564,-2.5563,-2.5563,-2.5563,-2.5563,-2.5645,-2.5648,-2.5642,-2.5642,-2.5638,-2.5634,-2.5636,-2.5629,-2.5628,-2.5624,-2.5617,-2.5617,-2.561,-2.5603,-2.5598,-2.5597,-2.5591,-2.5594,-2.5594,-2.5595,-2.5596,-2.5572,-2.5597,-2.5596,-2.5596,-2.5596,-2.5596,0,-2.5676,-2.567,-2.567,-2.5665,-2.5665,-2.5655,-2.565,-2.565,-2.565,-2.5645,-2.5642,-2.564,-2.5638,-2.5628,-2.5624,-2.5625,-2.562,-2.5624,-2.5623,-2.5622,-2.5602,-2.5601,-2.5628,-2.5628,-2.5628,-2.5628,-2.5628,-2.5628,-2.5691,-2.5696,-2.569,-2.5691,-2.5686,-2.5686,-2.5683,-2.568,-2.5675,-2.5673,-2.5671,-2.5665,-2.5657,-2.5652,-2.5649,-2.5646,-2.5644,-2.565,-2.5645,-2.5627,-2.5624,-2.5621,-2.5619,-2.565,-2.565,-2.5665,-2.5665,-2.5665]}]]